ATLAS 5 CENTAUR DEB, 52045

Orbit data source: Space-Track

ATLAS 5 CENTAUR DEB, 52045 is space debris in HEO originally from a launch on Wed, 17 Oct 2018 UTC launched from the Air Force Eastern Test Range (AFETR). Debris objects in space refer to the collection of defunct objects orbiting the Earth. Examples of debris include non-operational satellites, rocket bodies, and fragments generated from explosions, collisions, or faulty payload assembly.

Loading next visibility...
Identifier
52045, 2018-079GP
Orbit
HEO
Country
Flag of USUS
Related business
Flag of USUnited Launch Alliance/Lockheed Martin (US)
Manufacturer
ULA Decatur
Mission
Spacecraft
Bus & Motor
Unknown
Mass
Unknown
Launch date (UTC)
2018-10-17 (7 years ago)
Launch vehicle
Unknown
Launch site
Air Force Eastern Test Range (AFETR)
Object type
Payload
Rocket body
Debris
Shape & HBR
Unknown shape, 1.1 m
Radar Cross Section
RCS unknown

Expand to show TLE details & history
Last TLE update: 21 hours ago

TLE from 21 hours ago
0 ATLAS 5 CENTAUR DEB
1 52045U 18079GP  26023.23588217 -.00000116  00000-0  00000-0 0  9999
2 52045  13.0940  70.1695 4586100 236.4742  71.1068  1.72893836 28173
Epoch: 2026-01-23T05:39Z
TLE epoch observation values (Epoch: 2026-01-23T05:39:40.219Z)
Latitude
0.00002°
Longitude
-137.24256°
Altitude
24,641.617 km
Speed
3.48 km/s
True Right ascension
04h 41m 00s
True Declination
0° 00' 00"
Sunlit
Object was in daylight at epoch
Visualization orbit readout
Latitude
Unknown
Longitude
Unknown
Altitude
Unknown
Speed
Unknown
Apparent Right ascension
Unknown
Apparent Declination
Unknown
Sunlit
N/A
Visualization observer readout
Local Sidereal Time
03:58:42
Azimuth
Unknown
Elevation
Unknown
Doppler factor
Unknown
Orbital elements
Apogee altitude
36,396.291 km
Perigee altitude
9,498.381 km
Semi-major axis
29,325.473 km
Eccentricity
0.45861
Inclination
13.094°
RAAN
70.1695°
Arg. of periapsis
236.4742°
True anomaly
123.49923°
Mean anomaly
71.1068°
Eccentric anomaly
97.17732°
Mean motion
0.43219 °/min
Orbital period
832.97 mins
BSTAR
0
Loading maneuver chart data...
Computing Atmospheric mass density...

Documentation

Showing up to 5 results
|